This demonstration page uses our WeatherBlox Daily Observations layout. Learn more.

Hourly Observations for November 7, 2019

Temp ( °F °C ) Dew Point ( °F °C ) Humidity (%) Winds ( mph kmh ) Pressure ( in mb ) Visibility ( mi km ) Precip ( " mm )
12:15 am 00:15 Cloudy 25 -4.1 21 -6 87 87 N 18 30 30.68 1039 10 16.0934 0 0
12:35 am 00:35 Cloudy 24 -4.4 20 -6.7 84 84 N 18 30 30.68 1039 10 16.0934 0 0
12:55 am 00:55 Cloudy 24 -4.6 18 -8 77 77 N 14 22 30.7 1040 10 16.0934 0 0
1:15 am 01:15 Mostly Cloudy 24 -4.7 18 -7.6 80 80 N 16 26 30.71 1040 10 16.0934 0 0
1:30 am 01:30 Mostly Cloudy 23 -4.8 19 -7.5 82 82 N 15 24 30.7 1040 10 16.0934 0 0
1:55 am 01:55 Mostly Cloudy 23 -5.1 18 -7.8 82 82 NNE 12 19 30.72 1040 10 16.0934 0 0
2:15 am 02:15 Mostly Cloudy 22 -5.5 18 -8 83 83 N 12 19 30.72 1040 10 16.0934 0 0
2:35 am 02:35 Partly Cloudy 21 -6.2 15 -9.5 78 78 N 12 19 30.73 1041 10 16.0934 0 0
2:55 am 02:55 Clear 20 -6.6 12 -11 71 71 N 15 24 30.74 1041 10 16.0934 0 0
3:15 am 03:15 Clear 20 -6.8 12 -11.1 72 72 N 13 20 30.74 1041 10 16.0934 0 0
3:35 am 03:35 Clear 18 -7.8 12 -11 78 78 NNE 8 13 30.76 1041 10 16.0934 0 0
3:55 am 03:55 Clear 16 -8.7 12 -11.2 82 82 NNE 5 7 30.76 1042 10 16.0934 0 0
4:15 am 04:15 Clear 15 -9.7 11 -11.8 85 85 N 7 11 30.78 1042 10 16.0934 0 0
4:35 am 04:35 Clear 13 -10.5 10 -12 89 89 N 6 9 30.78 1042 10 16.0934 0 0
4:55 am 04:55 Clear 13 -10.5 11 -11.8 90 90 N 3 6 30.79 1043 10 16.0934 0 0
5:15 am 05:15 Clear 12 -11 10 -12.2 91 91 N 5 7 30.8 1043 10 16.0934 0 0
5:35 am 05:35 Clear 13 -10.7 10 -12.2 89 89 Calm 30.8 1043 10 16.0934 0 0
5:55 am 05:55 Clear 12 -11.3 10 -12.5 91 91 Calm 30.79 1043 10 16.0934 0 0
6:15 am 06:15 Clear 11 -11.5 9 -12.6 92 92 NW 3 6 30.8 1043 10 16.0934 0 0
6:35 am 06:35 Clear 11 -11.5 9 -12.7 91 91 Calm 30.79 1043 10 16.0934 0 0
6:55 am 06:55 Clear 11 -11.5 9 -12.6 92 92 Calm 30.79 1043 10 16.0934 0 0
7:15 am 07:15 Sunny 11 -11.5 9 -12.7 91 91 WNW 3 6 30.78 1042 10 16.0934 0 0
7:35 am 07:35 Sunny 12 -11.3 10 -12.5 91 91 Calm 30.79 1043 10 16.0934 0 0
7:55 am 07:55 Sunny 13 -10.8 10 -12.2 90 90 Calm 30.79 1043 10 16.0934 0 0
8:15 am 08:15 Sunny 15 -9.2 12 -11 87 87 Calm 30.77 1042 10 16.0934 0 0
8:35 am 08:35 Sunny 17 -8.5 13 -10.6 85 85 Calm 30.76 1042 10 16.0934 0 0
8:55 am 08:55 Sunny 18 -7.8 12 -11.1 77 77 Calm 30.77 1042 10 16.0934 0 0
9:15 am 09:15 Sunny 19 -7.3 12 -11.1 75 75 Calm 30.76 1042 10 16.0934 0 0
9:35 am 09:35 Sunny 20 -6.4 13 -10.8 71 71 Calm 30.75 1041 10 16.0934 0 0
9:55 am 09:55 Sunny 22 -5.6 10 -12.1 61 61 Calm 30.73 1041 10 16.0934 0 0
10:15 am 10:15 Sunny 24 -4.5 8 -13.4 50 50 WSW 5 7 30.72 1040 10 16.0934 0 0
10:35 am 10:35 Sunny 25 -3.8 5 -14.8 43 43 WSW 5 7 30.7 1040 10 16.0934 0 0
10:55 am 10:55 Sunny 26 -3.3 6 -14.5 42 42 WSW 5 7 30.69 1039 10 16.0934 0 0
11:15 am 11:15 Sunny 28 -2.2 7 -13.9 41 41 W 8 13 30.68 1039 10 16.0934 0 0
11:35 am 11:35 Sunny 29 -1.6 8 -13.6 40 40 WSW 5 7 30.65 1038 10 16.0934 0 0
11:55 am 11:55 Sunny 31 -0.6 9 -13 39 39 SW 7 11 30.64 1038 10 16.0934 0 0
12:15 pm 12:15 Sunny 32 -0.1 10 -12.3 40 40 SW 8 13 30.62 1037 10 16.0934 0 0
12:35 pm 12:35 Sunny 33 0.4 13 -10.6 44 44 SW 8 13 30.6 1036 10 16.0934 0 0
12:55 pm 12:55 Sunny 33 0.6 13 -10.7 43 43 WSW 9 15 30.59 1036 10 16.0934 0 0
1:15 pm 13:15 Sunny 34 1 14 -10.2 43 43 SW 10 17 30.57 1035 10 16.0934 0 0
1:35 pm 13:35 Sunny 35 1.8 15 -9.4 44 44 SW 9 15 30.55 1035 10 16.0934 0 0
1:55 pm 13:55 Sunny 36 2.1 15 -9.4 43 43 SW 6 9 30.54 1034 10 16.0934 0 0
2:15 pm 14:15 Sunny 37 2.8 16 -8.7 43 43 WSW 8 13 30.52 1034 10 16.0934 0 0
2:35 pm 14:35 Sunny 38 3.2 17 -8.4 43 43 WSW 7 11 30.52 1033 10 16.0934 0 0
2:55 pm 14:55 Sunny 38 3.5 18 -7.8 44 44 SW 9 15 30.5 1033 10 16.0934 0 0
3:15 pm 15:15 Sunny 39 4 19 -7.1 45 45 SW 7 11 30.49 1032 10 16.0934 0 0
3:35 pm 15:35 Sunny 39 4.1 20 -6.6 46 46 SW 7 11 30.49 1032 10 16.0934 0 0
3:55 pm 15:55 Sunny 39 4 22 -5.7 50 50 WSW 8 13 30.49 1032 10 16.0934 0 0
4:15 pm 16:15 Sunny 40 4.2 22 -5.4 50 50 WSW 8 13 30.49 1032 10 16.0934 0 0
4:35 pm 16:35 Sunny 39 4 22 -5.5 50 50 SW 9 15 30.48 1032 10 16.0934 0 0
4:55 pm 16:55 Sunny 38 3.5 22 -5.6 52 52 SW 5 7 30.48 1032 10 16.0934 0 0
5:15 pm 17:15 Sunny 36 2.4 21 -6 54 54 SW 6 9 30.49 1033 10 16.0934 0 0
5:35 pm 17:35 Clear 35 1.8 21 -6 57 57 SSW 5 7 30.49 1032 10 16.0934 0 0
5:55 pm 17:55 Clear 33 0.7 21 -6.2 60 60 SSW 5 7 30.5 1033 10 16.0934 0 0
6:15 pm 18:15 Clear 32 0 20 -6.5 62 62 SSW 5 7 30.52 1033 10 16.0934 0 0
6:35 pm 18:35 Clear 31 -0.4 20 -6.8 62 62 SW 3 6 30.52 1034 10 16.0934 0 0
6:55 pm 18:55 Clear 30 -1 20 -6.8 65 65 SSW 5 7 30.53 1034 10 16.0934 0 0
7:15 pm 19:15 Clear 27 -2.8 18 -7.7 69 69 S 3 6 30.54 1034 10 16.0934 0 0
7:35 pm 19:35 Clear 29 -1.9 19 -7 68 68 SSW 6 9 30.52 1034 10 16.0934 0 0
7:55 pm 19:55 Clear 28 -2.1 19 -7.2 68 68 SSE 3 6 30.53 1034 10 16.0934 0 0
8:15 pm 20:15 Clear 27 -2.7 19 -7 73 73 SSW 6 9 30.53 1034 10 16.0934 0 0
8:35 pm 20:35 Clear 25 -3.7 18 -8 72 72 S 5 7 30.54 1034 10 16.0934 0 0
8:55 pm 20:55 Clear 26 -3.5 19 -7.1 76 76 SSW 7 11 30.53 1034 10 16.0934 0 0
9:15 pm 21:15 Clear 27 -2.8 19 -7 73 73 S 8 13 30.52 1034 10 16.0934 0 0
9:35 pm 21:35 Clear 26 -3.1 19 -7 75 75 SSW 8 13 30.53 1034 10 16.0934 0 0
9:55 pm 21:55 Clear 27 -3 19 -7 74 74 SSW 7 11 30.53 1034 10 16.0934 0 0
10:15 pm 22:15 Clear 26 -3.1 20 -6.9 75 75 SSW 9 15 30.53 1034 10 16.0934 0 0
10:35 pm 22:35 Clear 26 -3.5 19 -7.1 76 76 SSW 7 11 30.53 1034 10 16.0934 0 0
10:55 pm 22:55 Clear 26 -3.3 19 -7 76 76 SSW 6 9 30.53 1034 10 16.0934 0 0
11:15 pm 23:15 Clear 26 -3.5 19 -7 77 77 SSW 7 11 30.53 1034 10 16.0934 0 0
11:35 pm 23:35 Clear 27 -3 20 -6.6 76 76 SSW 8 13 30.52 1033 10 16.0934 0 0
11:55 pm 23:55 Clear 26 -3.5 19 -7 77 77 SSW 8 13 30.52 1034 10 16.0934 0 0

Powered by AerisWeather